Home > Weather > Fayetteville > Past weeks

Flag for USA Past Weather in Fayetteville, North Carolina, USA — Yesterday and Last 2 Weeks

Now
76 °F

Clear.


Feels Like: 77 °F
Forecast: 73 / 84 °F
Wind: 5 mph from Southwest

Location: Fayetteville Regional Airport

Current Time: Jun 28, 2016 at 2:14:06 AM

Latest Report: Jun 28, 2016 at 1:53 AM


Visibility: 10 mi

Pressure: 29.98 "Hg

Humidity: 82%

Dew Point: 70 °F

Location of FayettevilleLocation

Past Weather in Fayetteville — Graph

°F

Fayetteville Temperature Yesterday

Maximum temperature yesterday: 91 °F (at 2:53 PM)
Minimum temperature yesterday: 68 °F (at 2:53 AM)
Average temperature yesterday: 80 °F

High & Low Weather Summary for the Past Weeks

 TemperatureHumidityPressure
High97 °F (Jun 22, 3:53 PM)94% (Jun 16, 12:53 AM)30.35 "Hg (Jun 16, 12:53 AM)
Low60 °F (Jun 19, 4:53 AM)22% (Jun 13, 5:53 PM)29.64 "Hg (Jun 17, 2:53 AM)
Average79 °F63%30.00 "Hg
* Reported Jun 13 12:53 AM — Jun 28 12:53 AM, Fayetteville, Weather by CustomWeather, © 2016

Note: Actual official high and low records may vary slightly from our data, if they occured in-between our weather recording intervals... More about our weather records

Advertising

Fayetteville Weather History for the Previous 24 Hours

Scroll right to see more
 ConditionsComfort  
Time TempWeatherWind HumidityBarometerVisibility
12:53 AM
Tue, Jun 28
77 °FClear.8 mph79%29.98 "Hg10 mi
11:53 PM
Mon, Jun 27
79 °FClear.8 mph72%29.99 "Hg10 mi
10:53 PM80 °FClear.8 mph69%30.00 "Hg10 mi
9:53 PM81 °FClear.10 mph67%29.99 "Hg10 mi
8:53 PM83 °FSunny.9 mph63%29.98 "Hg10 mi
7:53 PM87 °FSunny.7 mph45%29.97 "Hg10 mi
6:53 PM89 °FSunny.7 mph41%29.96 "Hg10 mi
5:53 PM91 °FPassing clouds.9 mph37%29.95 "Hg10 mi
4:53 PM90 °FScattered clouds.8 mph38%29.97 "Hg10 mi
3:53 PM91 °FSunny.No wind33%29.98 "Hg10 mi
2:53 PM91 °FPassing clouds.3 mph37%30.01 "Hg10 mi
1:53 PM90 °FPassing clouds.N/A39%30.04 "Hg10 mi
12:53 PM88 °FSunny.3 mph45%30.06 "Hg10 mi
11:53 AM83 °FBroken clouds.No wind55%30.09 "Hg10 mi
10:53 AM83 °FPartly sunny.No wind63%30.10 "Hg10 mi
9:53 AM78 °FPassing clouds.3 mph74%30.11 "Hg10 mi
8:53 AM75 °FLow clouds.6 mph82%30.10 "Hg10 mi
7:53 AM73 °FFog.5 mph88%30.09 "Hg3 mi
6:53 AM72 °FFog.3 mph87%30.10 "Hg6 mi
5:53 AM69 °FPassing clouds.No wind90%30.09 "Hg7 mi
4:53 AM69 °FLow clouds.5 mph87%30.09 "Hg9 mi
3:53 AM69 °FClear.3 mph87%30.09 "Hg10 mi
2:53 AM68 °FClear.No wind87%30.09 "Hg10 mi
Weather by CustomWeather, © 2016

See weather overviewHow to use our weather pages